User: anonymous   Login
Location: Unspecified
(0.0000°N, 0.0000°E)
Time: 18:41:51
(UTC+00:00)
Language:

INTELSAT 904 - Orbit

View from above orbital plane
View from above orbital plane
View from above satellite
View from above satellite

Ground track
Ground track

The orbit data is extracted from the following two-line orbital elements,

1 27380U 02007A   19052.16344216  .00000114  00000-0  00000+0 0  9998
2 27380   0.3429  99.3929 0002743 291.1594 224.1425  1.00272000 62288
Epoch (UTC): 21 February 2019 03:55:21
Eccentricity: 0.0002743
inclination: 0.3429°
perigee height: 35774 km
apogee height: 35798 km
right ascension of ascending node: 99.3929°
argument of perigee: 291.1594°
revolutions per day: 1.00272000
mean anomaly at epoch: 224.1425°
orbit number at epoch: 6228

The dashed part of the orbit path shows where the satellite is in the earth's shadow,  

DLR